| time (UTC) | temp F | wind direction | speed MPH | gust MPH | rain 1hr in | rain 24hr in | rain mn in | humidity % | barometer mb |
| 20260504081634 | 54 | 162 | 7.0 | 11.0 | 0.00 | 0.00 | 0.00 | 50 | |
| 20260504081130 | 54 | 152 | 5.0 | 11.0 | 0.00 | 0.00 | 0.00 | 50 | |
| 20260504080627 | 54 | 161 | 8.0 | 11.0 | 0.00 | 0.00 | 0.00 | 50 | |
| 20260504080123 | 54 | 167 | 7.0 | 9.0 | 0.00 | 0.00 | 0.00 | 50 | |
| 20260504050439 | 55 | 170 | 6.0 | 7.0 | 0.00 | 0.00 | 0.00 | 50 | |
| 20260504045936 | 55 | 170 | 6.0 | 7.0 | 0.00 | 0.00 | 0.00 | 50 | |
| 20260504045432 | 55 | 163 | 4.0 | 6.0 | 0.00 | 0.00 | 0.00 | 49 | |
| 20260504044928 | 55 | 154 | 5.0 | 6.0 | 0.00 | 0.00 | 0.00 | 49 | |
| 20260504044426 | 55 | 183 | 4.0 | 5.0 | 0.00 | 0.00 | 0.00 | 49 | |
| 20260504043923 | 55 | 168 | 5.0 | 6.0 | 0.00 | 0.00 | 0.00 | 48 | |
| 20260504043420 | 55 | 162 | 4.0 | 6.0 | 0.00 | 0.00 | 0.00 | 47 | |
| 20260504042917 | 56 | 168 | 4.0 | 5.0 | 0.00 | 0.00 | 0.00 | 47 | |
| 20260504042413 | 56 | 168 | 4.0 | 5.0 | 0.00 | 0.00 | 0.00 | 47 | |
| 20260504041909 | 55 | 173 | 3.0 | 5.0 | 0.00 | 0.00 | 0.00 | 46 | |
| 20260504041406 | 55 | 194 | 2.0 | 3.0 | 0.00 | 0.00 | 0.00 | 46 | |
| 20260504040902 | 56 | 167 | 3.0 | 6.0 | 0.00 | 0.00 | 0.00 | 45 | |
| 20260504040400 | 56 | 172 | 4.0 | 7.0 | 0.00 | 0.00 | 0.00 | 44 | |
| 20260504035855 | 57 | 153 | 5.0 | 6.0 | 0.00 | 0.00 | 0.00 | 43 | |
| 20260504035353 | 57 | 181 | 3.0 | 3.0 | 0.00 | 0.00 | 0.00 | 43 | |
| 20260504034850 | 57 | 175 | 2.0 | 3.0 | 0.00 | 0.00 | 0.00 | 43 | |
| 20260504033850 | 57 | 213 | 3.0 | 5.0 | 0.00 | 0.00 | 0.00 | 41 | |
| 20260504033348 | 57 | 213 | 3.0 | 5.0 | 0.00 | 0.00 | 0.00 | 41 | |
| 20260504032844 | 57 | 197 | 1.0 | 2.0 | 0.00 | 0.00 | 0.00 | 41 | |
| 20260504032342 | 57 | 194 | 2.0 | 2.0 | 0.00 | 0.00 | 0.00 | 41 | |
| 20260504031838 | 57 | 172 | 4.0 | 5.0 | 0.00 | 0.00 | 0.00 | 41 | |
| 20260504031336 | 57 | 167 | 3.0 | 5.0 | 0.00 | 0.00 | 0.00 | 41 | |
| 20260504030832 | 57 | 215 | 3.0 | 3.0 | 0.00 | 0.00 | 0.00 | 41 | |
| 20260504030329 | 58 | 174 | 5.0 | 6.0 | 0.00 | 0.00 | 0.00 | 40 | |
| 20260504025825 | 58 | 161 | 2.0 | 5.0 | 0.00 | 0.00 | 0.00 | 39 | |
| 20260504025322 | 58 | 186 | 3.0 | 5.0 | 0.00 | 0.00 | 0.00 | 38 | |
| 20260504024819 | 58 | 196 | 3.0 | 3.0 | 0.00 | 0.00 | 0.00 | 38 | |
| 20260504024316 | 58 | 184 | 2.0 | 3.0 | 0.00 | 0.00 | 0.00 | 37 | |
| 20260504023812 | 58 | 177 | 3.0 | 3.0 | 0.00 | 0.00 | 0.00 | 38 | |
| 20260504023309 | 58 | 180 | 3.0 | 3.0 | 0.00 | 0.00 | 0.00 | 38 | |
| 20260504022805 | 58 | 192 | 3.0 | 3.0 | 0.00 | 0.00 | 0.00 | 37 | |
| 20260504022302 | 58 | 191 | 2.0 | 3.0 | 0.00 | 0.00 | 0.00 | 37 | |
| 20260504021758 | 59 | 201 | 1.0 | 2.0 | 0.00 | 0.00 | 0.00 | 38 | |
| 20260504021256 | 59 | 181 | 3.0 | 3.0 | 0.00 | 0.00 | 0.00 | 37 | |
| 20260504020752 | 60 | 198 | 1.0 | 2.0 | 0.00 | 0.00 | 0.00 | 37 | |
| 20260504020249 | 61 | 191 | 1.0 | 2.0 | 0.00 | 0.00 | 0.00 | 37 | |
| 20260504015745 | 61 | 195 | 2.0 | 3.0 | 0.00 | 0.00 | 0.00 | 36 | |
| 20260504015242 | 61 | 200 | 1.0 | 2.0 | 0.00 | 0.00 | 0.00 | 36 | |
| 20260504014737 | 61 | 203 | 1.0 | 3.0 | 0.00 | 0.00 | 0.00 | 37 | |
| 20260504014234 | 62 | 215 | 2.0 | 2.0 | 0.00 | 0.00 | 0.00 | 36 | |
| 20260504013732 | 62 | 210 | 1.0 | 2.0 | 0.00 | 0.00 | 0.00 | 36 | |
| 20260504013229 | 62 | 204 | 0.0 | 2.0 | 0.00 | 0.00 | 0.00 | 36 | |
| 20260504012726 | 62 | 211 | 1.0 | 3.0 | 0.00 | 0.00 | 0.00 | 37 | |
| 20260504012224 | 62 | 212 | 2.0 | 3.0 | 0.00 | 0.00 | 0.00 | 36 | |
| 20260504011720 | 63 | 220 | 3.0 | 3.0 | 0.00 | 0.00 | 0.00 | 35 | |
| 20260504011217 | 63 | 203 | 3.0 | 3.0 | 0.00 | 0.00 | 0.00 | 35 | |
| 20260504010713 | 63 | 209 | 2.0 | 2.0 | 0.00 | 0.00 | 0.00 | 35 | |
| 20260504010209 | 64 | 199 | 3.0 | 5.0 | 0.00 | 0.00 | 0.00 | 35 | |
| 20260504005706 | 64 | 209 | 3.0 | 5.0 | 0.00 | 0.00 | 0.00 | 34 | |
| 20260504005203 | 65 | 207 | 3.0 | 5.0 | 0.00 | 0.00 | 0.00 | 34 | |
| 20260504004700 | 66 | 210 | 3.0 | 3.0 | 0.00 | 0.00 | 0.00 | 33 | |
| 20260504004157 | 66 | 216 | 3.0 | 5.0 | 0.00 | 0.00 | 0.00 | 33 | |
| 20260504003654 | 66 | 219 | 3.0 | 3.0 | 0.00 | 0.00 | 0.00 | 33 | |
| 20260504003151 | 66 | 218 | 3.0 | 5.0 | 0.00 | 0.00 | 0.00 | 32 | |
| 20260504002647 | 67 | 219 | 5.0 | 7.0 | 0.00 | 0.00 | 0.00 | 31 | |
| 20260504002145 | 67 | 214 | 9.0 | 10.0 | 0.00 | 0.00 | 0.00 | 31 | |
| 20260504001643 | 68 | 215 | 5.0 | 7.0 | 0.00 | 0.00 | 0.00 | 30 | |
| 20260504001138 | 68 | 220 | 5.0 | 8.0 | 0.00 | 0.00 | 0.00 | 30 | |
| 20260504000636 | 68 | 209 | 7.0 | 8.0 | 0.00 | 0.00 | 0.00 | 28 | |
| 20260504000133 | 68 | 233 | 5.0 | 8.0 | 0.00 | 0.00 | 0.00 | 27 | |
| 20260503235631 | 68 | 222 | 6.0 | 7.0 | 0.00 | 0.00 | 0.00 | 28 | |
| 20260503235127 | 68 | 229 | 5.0 | 9.0 | 0.00 | 0.00 | 0.00 | 28 | |
| 20260503234626 | 68 | 227 | 6.0 | 9.0 | 0.00 | 0.00 | 0.00 | 27 | |
| 20260503234124 | 68 | 216 | 4.0 | 6.0 | 0.00 | 0.00 | 0.00 | 28 | |
| 20260503233620 | 68 | 213 | 6.0 | 10.0 | 0.00 | 0.00 | 0.00 | 27 | |
| 20260503233116 | 68 | 223 | 9.0 | 11.0 | 0.00 | 0.00 | 0.00 | 28 | |
| 20260503232613 | 69 | 225 | 6.0 | 11.0 | 0.00 | 0.00 | 0.00 | 27 | |
| 20260503232110 | 69 | 223 | 6.0 | 7.0 | 0.00 | 0.00 | 0.00 | 28 | |
| 20260503231608 | 69 | 230 | 7.0 | 11.0 | 0.00 | 0.00 | 0.00 | 28 | |
| 20260503231104 | 68 | 216 | 5.0 | 8.0 | 0.00 | 0.00 | 0.00 | 28 | |
| 20260503230601 | 69 | 190 | 7.0 | 10.0 | 0.00 | 0.00 | 0.00 | 30 | |
| 20260503230059 | 69 | 216 | 7.0 | 10.0 | 0.00 | 0.00 | 0.00 | 30 | |
| 20260503225555 | 69 | 231 | 9.0 | 10.0 | 0.00 | 0.00 | 0.00 | 29 | |
| 20260503225050 | 69 | 225 | 9.0 | 10.0 | 0.00 | 0.00 | 0.00 | 28 | |
| 20260503224548 | 69 | 222 | 7.0 | 10.0 | 0.00 | 0.00 | 0.00 | 27 | |
| 20260503224046 | 69 | 218 | 7.0 | 9.0 | 0.00 | 0.00 | 0.00 | 28 | |
| 20260503223544 | 69 | 232 | 9.0 | 10.0 | 0.00 | 0.00 | 0.00 | 27 | |
| 20260503223039 | 69 | 217 | 7.0 | 9.0 | 0.00 | 0.00 | 0.00 | 26 | |
| 20260503222538 | 70 | 225 | 11.0 | 15.0 | 0.00 | 0.00 | 0.00 | 27 | |
| 20260503222035 | 69 | 202 | 8.0 | 13.0 | 0.00 | 0.00 | 0.00 | 28 | |
| 20260503221533 | 70 | 212 | 4.0 | 10.0 | 0.00 | 0.00 | 0.00 | 28 | |
| 20260503221030 | 69 | 216 | 9.0 | 14.0 | 0.00 | 0.00 | 0.00 | 27 | |
| 20260503220526 | 69 | 227 | 7.0 | 9.0 | 0.00 | 0.00 | 0.00 | 29 | |
| 20260503220023 | 69 | 211 | 3.0 | 11.0 | 0.00 | 0.00 | 0.00 | 27 | |
| 20260503215520 | 69 | 202 | 11.0 | 13.0 | 0.00 | 0.00 | 0.00 | 28 | |
| 20260503215017 | 69 | 223 | 4.0 | 6.0 | 0.00 | 0.00 | 0.00 | 28 | |
| 20260503214516 | 69 | 210 | 4.0 | 6.0 | 0.00 | 0.00 | 0.00 | 28 | |
| 20260503214012 | 69 | 219 | 5.0 | 9.0 | 0.00 | 0.00 | 0.00 | 27 | |
| 20260503213511 | 70 | 217 | 6.0 | 10.0 | 0.00 | 0.00 | 0.00 | 28 | |
| 20260503213007 | 69 | 208 | 9.0 | 11.0 | 0.00 | 0.00 | 0.00 | 29 | |
| 20260503212504 | 70 | 225 | 8.0 | 10.0 | 0.00 | 0.00 | 0.00 | 31 | |
| 20260503212001 | 69 | 225 | 11.0 | 13.0 | 0.00 | 0.00 | 0.00 | 29 | |
| 20260503211459 | 69 | 204 | 5.0 | 7.0 | 0.00 | 0.00 | 0.00 | 28 | |
| 20260503210954 | 71 | 200 | 2.0 | 3.0 | 0.00 | 0.00 | 0.00 | 26 | |
| 20260503210451 | 70 | 202 | 7.0 | 9.0 | 0.00 | 0.00 | 0.00 | 29 | |
| 20260503205951 | 70 | 203 | 5.0 | 9.0 | 0.00 | 0.00 | 0.00 | 28 | |
| 20260503205449 | 70 | 216 | 6.0 | 10.0 | 0.00 | 0.00 | 0.00 | 30 | |
| 20260503204945 | 70 | 203 | 9.0 | 11.0 | 0.00 | 0.00 | 0.00 | 28 | |
| 20260503204442 | 70 | 210 | 2.0 | 7.0 | 0.00 | 0.00 | 0.00 | 29 | |
| 20260503203939 | 70 | 233 | 9.0 | 11.0 | 0.00 | 0.00 | 0.00 | 29 | |
| 20260503203437 | 70 | 205 | 7.0 | 11.0 | 0.00 | 0.00 | 0.00 | 32 | |
| 20260503202933 | 70 | 220 | 11.0 | 13.0 | 0.00 | 0.00 | 0.00 | 33 | |
| 20260503202432 | 70 | 224 | 6.0 | 7.0 | 0.00 | 0.00 | 0.00 | 31 | |
| 20260503201930 | 71 | 218 | 9.0 | 13.0 | 0.00 | 0.00 | 0.00 | 32 | |
| 20260503201427 | 70 | 223 | 7.0 | 10.0 | 0.00 | 0.00 | 0.00 | 31 | |
| 20260503200924 | 68 | 213 | 11.0 | 11.0 | 0.00 | 0.00 | 0.00 | 32 | |
| 20260503200420 | 69 | 183 | 7.0 | 9.0 | 0.00 | 0.00 | 0.00 | 32 | |
| 20260503195917 | 69 | 228 | 10.0 | 20.0 | 0.00 | 0.00 | 0.00 | 34 | |
| 20260503195415 | 69 | 205 | 8.0 | 11.0 | 0.00 | 0.00 | 0.00 | 33 | |
| 20260503194911 | 69 | 208 | 14.0 | 16.0 | 0.00 | 0.00 | 0.00 | 32 | |
| 20260503194408 | 70 | 214 | 6.0 | 9.0 | 0.00 | 0.00 | 0.00 | 30 | |
| 20260503193903 | 69 | 203 | 8.0 | 11.0 | 0.00 | 0.00 | 0.00 | 31 | |
| 20260503193359 | 70 | 214 | 10.0 | 16.0 | 0.00 | 0.00 | 0.00 | 31 | |
| 20260503192855 | 70 | 205 | 6.0 | 10.0 | 0.00 | 0.00 | 0.00 | 32 | |
| 20260503192350 | 70 | 215 | 5.0 | 6.0 | 0.00 | 0.00 | 0.00 | 31 | |
| 20260503191847 | 69 | 197 | 4.0 | 7.0 | 0.00 | 0.00 | 0.00 | 32 | |
| 20260503191344 | 70 | 231 | 9.0 | 15.0 | 0.00 | 0.00 | 0.00 | 31 | |
| 20260503190841 | 70 | 225 | 8.0 | 13.0 | 0.00 | 0.00 | 0.00 | 30 | |
| 20260503190338 | 71 | 196 | 1.0 | 3.0 | 0.00 | 0.00 | 0.00 | 30 | |
| 20260503185835 | 71 | 227 | 2.0 | 6.0 | 0.00 | 0.00 | 0.00 | 30 | |
| 20260503185331 | 69 | 259 | 2.0 | 7.0 | 0.00 | 0.00 | 0.00 | 29 | |
| 20260503184826 | 70 | 204 | 7.0 | 10.0 | 0.00 | 0.00 | 0.00 | 30 | |
| 20260503184322 | 70 | 206 | 2.0 | 3.0 | 0.00 | 0.00 | 0.00 | 31 | |
| 20260503183818 | 68 | 217 | 13.0 | 15.0 | 0.00 | 0.00 | 0.00 | 30 | |
| 20260503183316 | 68 | 209 | 5.0 | 13.0 | 0.00 | 0.00 | 0.00 | 31 | |
| 20260503182813 | 70 | 203 | 2.0 | 10.0 | 0.00 | 0.00 | 0.00 | 30 | |
| 20260503182312 | 69 | 210 | 1.0 | 6.0 | 0.00 | 0.00 | 0.00 | 31 | |
| 20260503181809 | 68 | 202 | 4.0 | 13.0 | 0.00 | 0.00 | 0.00 | 32 | |
| 20260503181306 | 67 | 218 | 9.0 | 13.0 | 0.00 | 0.00 | 0.00 | 34 | |
| 20260503180802 | 68 | 227 | 9.0 | 13.0 | 0.00 | 0.00 | 0.00 | 33 | |
| 20260503180300 | 68 | 216 | 15.0 | 17.0 | 0.00 | 0.00 | 0.00 | 33 | |
| 20260503175756 | 68 | 220 | 7.0 | 9.0 | 0.00 | 0.00 | 0.00 | 34 | |
| 20260503175254 | 70 | 211 | 14.0 | 16.0 | 0.00 | 0.00 | 0.00 | 34 | |
| 20260503174749 | 70 | 221 | 7.0 | 9.0 | 0.00 | 0.00 | 0.00 | 36 | |
| 20260503174248 | 69 | 236 | 7.0 | 8.0 | 0.00 | 0.00 | 0.00 | 36 | |
| 20260503173748 | 68 | 196 | 5.0 | 8.0 | 0.00 | 0.00 | 0.00 | 36 | |
| 20260503173244 | 68 | 222 | 1.0 | 2.0 | 0.00 | 0.00 | 0.00 | 35 | |
| 20260503172741 | 67 | 210 | 7.0 | 9.0 | 0.00 | 0.00 | 0.00 | 36 | |
| 20260503172238 | 68 | 237 | 11.0 | 13.0 | 0.00 | 0.00 | 0.00 | 35 | |
| 20260503171734 | 68 | 251 | 3.0 | 5.0 | 0.00 | 0.00 | 0.00 | 36 | |
| 20260503171232 | 68 | 207 | 1.0 | 2.0 | 0.00 | 0.00 | 0.00 | 36 | |
| 20260503170729 | 68 | 218 | 3.0 | 6.0 | 0.00 | 0.00 | 0.00 | 35 | |
| 20260503170226 | 68 | 235 | 3.0 | 5.0 | 0.00 | 0.00 | 0.00 | 36 | |
| 20260503160147 | 64 | 216 | 3.0 | 6.0 | 0.00 | 0.00 | 0.00 | 36 | |
| 20260503150617 | 61 | 192 | 9.0 | 11.0 | 0.00 | 0.00 | 0.00 | 40 | |
| 20260503150114 | 60 | 197 | 1.0 | 8.0 | 0.00 | 0.00 | 0.00 | 39 | |
| 20260503131007 | 55 | 204 | 6.0 | 16.0 | 0.00 | 0.00 | 0.00 | 45 | |
| 20260503130504 | 55 | 173 | 12.0 | 21.0 | 0.00 | 0.00 | 0.00 | 44 | |
| 20260503110355 | 53 | 55 | 5.0 | 10.0 | 0.00 | 0.00 | 0.00 | 54 |